Location: Aubrey
(33.1990°N, 85.1361°W)
Time: 22:10:29
(UTC+00:00)

Envisat - Pass Details

Date: 22 September 2021
Orbit: 764 x 766 km, 98.2° (Epoch: 21 October)

Event Time Altitude Azimuth Distance (km) Brightness Sun altitude
Rises 10:52:03 0° 10° (N) 3,234 6.5 -8.5°
Reaches altitude 10° 10:54:22 10° 10° (N) 2,304 5.7 -8.0°
Maximum altitude 10:59:27 80° 284° (WNW) 779 3.0 -7.0°
Drops below altitude 10° 11:04:30 10° 198° (SSW) 2,290 5.3 -5.9°
Sets 11:06:47 0° 197° (SSW) 3,212 6.0 -5.5°
